Location: Innsbruck
(47.2657°N, 11.3914°E)
Time: 02:02:28
(UTC+02:00)

Envisat - Pass Details

Date: 06 February 2023
Orbit: 763 x 765 km, 98.2° (Epoch: 28 March)

Event Time Altitude Azimuth Distance (km) Brightness Sun altitude
Rises 04:49:40 0° 10° (N) 3,245 6.5 -28.2°
Reaches altitude 10° 04:52:00 10° 7° (N) 2,314 5.6 -27.8°
Enters shadow 04:54:48 32° 356° (N) 1,291 4.1 -27.3°
